Anderson, SC

9:03 AM EST on January 24, 2017 (GMT -0500)
Anderson Regional

Weather History for KAND - July, 2013

Change the Weather History Date:

Monday, July 8, 2013

  Actual Average Record
Temperature  
Mean Temperature 80 °F -  
Max Temperature 88 °F 90 °F 105 °F (1977)
Min Temperature 72 °F 68 °F 60 °F (1951)
Cooling Degree Days 15    
Growing Degree Days 30 (Base 50)    
Moisture  
Dew Point 73 °F    
Average Humidity 88    
Maximum Humidity 100    
Minimum Humidity 57    
Precipitation  
Precipitation 1.79 in - - ()
Sea Level Pressure  
Sea Level Pressure 30.16 in    
Wind  
Wind Speed 4 mph (SSW)    
Max Wind Speed 14 mph    
Max Gust Speed 20 mph    
Visibility 8 miles    
Events Rain , Thunderstorm    
Averages and records for this station are not official NWS values.
T = Trace of Precipitation, MM = Missing Value Source: NWS Daily Summary

Daily Weather History Graph

Daily Weather History Graph

Search for Another Location

Airport or City:

Trip Planner

Search our weather history database for the weather conditions in past years. The results will help you decide how hot, cold, wet, or windy it might be!

Date:

Astronomy

Jul. 08, 2013 Rise Set
Actual Time 6:25 AM EDT 8:46 PM EDT
Civil Twilight 5:56 AM EDT 9:15 PM EDT
Nautical Twilight 5:20 AM EDT 9:50 PM EDT
Astronomical Twilight 4:41 AM EDT 10:29 PM EDT
Moon 6:49 AM EDT (7/8) 8:52 PM EDT (7/8)
Length of Visible Light 15h 18m
Length of Day
14h 20m
New Moon, 0% of the Moon is Illuminated
Jul 8
New Moon
Jul 15
First Quarter
Jul 22
Full
Jul 29
Last Quarter
Aug 6
New

Hourly Weather History & Observations

Time (EDT) Temp. Heat Index Dew Point Humidity Pressure Visibility Wind Dir Wind Speed Gust Speed Precip Events Conditions
12:56 AM 73.9 °F - 73.9 °F 100% 30.16 in 6.0 mi SSW 3.5 mph - N/A   Overcast
1:56 AM 73.9 °F - 73.9 °F 100% 30.15 in 10.0 mi SW 3.5 mph - 0.00 in   Overcast
2:56 AM 73.9 °F - 73.0 °F 97% 30.14 in 9.0 mi Calm Calm - 0.01 in Rain Light Rain
3:56 AM 73.0 °F - 73.0 °F 100% 30.14 in 5.0 mi SW 3.5 mph - 0.00 in Rain Light Rain
4:08 AM 73.4 °F - 73.4 °F 100% 30.16 in 6.0 mi SSW 4.6 mph - 0.00 in Rain Light Rain
4:40 AM 73.4 °F - 73.4 °F 100% 30.16 in 6.0 mi Calm Calm - 0.00 in   Overcast
4:56 AM 73.0 °F - 73.0 °F 100% 30.13 in 6.0 mi Calm Calm - 0.00 in   Mostly Cloudy
5:10 AM 73.4 °F - 73.4 °F 100% 30.15 in 6.0 mi Calm Calm - N/A   Scattered Clouds
5:56 AM 73.0 °F - 73.0 °F 100% 30.14 in 6.0 mi Calm Calm - N/A   Clear
6:06 AM 73.4 °F - 73.4 °F 100% 30.17 in 3.0 mi Calm Calm - N/A   Partly Cloudy
6:56 AM 72.0 °F - 72.0 °F 100% 30.15 in 10.0 mi SSW 4.6 mph - N/A   Clear
7:56 AM 73.0 °F - 72.0 °F 96% 30.17 in 10.0 mi South 4.6 mph - N/A   Overcast
8:56 AM 73.9 °F - 71.1 °F 91% 30.17 in 10.0 mi SSW 6.9 mph - N/A   Clear
9:56 AM 75.9 °F - 71.1 °F 85% 30.18 in 10.0 mi SSW 6.9 mph - 0.01 in   Clear
10:56 AM 79.0 °F - 71.1 °F 77% 30.19 in 10.0 mi South 6.9 mph - N/A   Mostly Cloudy
11:56 AM 82.0 °F 86.3 °F 71.1 °F 69% 30.19 in 10.0 mi South 4.6 mph - N/A   Clear
12:27 PM 82.4 °F 87.2 °F 71.6 °F 70% 30.21 in 10.0 mi SW 4.6 mph - N/A   Mostly Cloudy
12:56 PM 84.0 °F 89.0 °F 71.1 °F 65% 30.18 in 10.0 mi Calm Calm - N/A   Scattered Clouds
1:08 PM 82.4 °F 87.2 °F 71.6 °F 70% 30.20 in 10.0 mi Variable 3.5 mph - N/A   Mostly Cloudy
1:56 PM 84.9 °F 90.7 °F 72.0 °F 65% 30.16 in 10.0 mi Calm Calm - N/A   Partly Cloudy
2:56 PM 86.0 °F 92.2 °F 72.0 °F 63% 30.14 in 10.0 mi South 5.8 mph - N/A   Clear
3:56 PM 87.1 °F 93.6 °F 72.0 °F 61% 30.11 in 10.0 mi South 9.2 mph - N/A   Clear
4:56 PM 88.0 °F 93.8 °F 71.1 °F 57% 30.11 in 10.0 mi South 6.9 mph - N/A   Scattered Clouds
5:56 PM 84.9 °F 90.1 °F 71.1 °F 63% 30.11 in 10.0 mi SSW 8.1 mph - N/A   Partly Cloudy
6:56 PM 82.9 °F 89.4 °F 73.9 °F 74% 30.10 in 10.0 mi South 6.9 mph - N/A   Mostly Cloudy
7:41 PM 82.4 °F 89.5 °F 75.2 °F 79% 30.13 in 10.0 mi South 4.6 mph - N/A Thunderstorm Mostly Cloudy
7:56 PM 82.0 °F 89.4 °F 75.9 °F 82% 30.11 in 6.0 mi SW 5.8 mph - 0.00 in Rain Rain
8:11 PM 78.8 °F - 77.0 °F 94% 30.14 in 10.0 mi NW 8.1 mph - 0.01 in Rain , Thunderstorm Light Rain
8:42 PM 78.8 °F - 75.2 °F 89% 30.15 in 6.0 mi NE 3.5 mph - 0.03 in Rain Light Rain
8:56 PM 78.1 °F - 77.0 °F 96% 30.12 in 10.0 mi Calm Calm - 0.03 in Rain Light Rain
9:56 PM 73.9 °F - 73.0 °F 97% 30.14 in 8.0 mi ENE 6.9 mph - 0.03 in Rain Light Rain
10:20 PM 73.4 °F - 73.4 °F 100% 30.17 in 5.0 mi Calm Calm - 0.07 in Rain Rain
10:36 PM 75.2 °F - 73.4 °F 94% 30.17 in 10.0 mi East 4.6 mph - 0.08 in Rain Light Rain
10:46 PM 75.2 °F - 75.2 °F 100% 30.18 in 10.0 mi ENE 3.5 mph - 0.09 in Rain , Thunderstorm Light Rain
10:56 PM 75.9 °F - 75.0 °F 97% 30.15 in 10.0 mi Variable 3.5 mph - 0.09 in Rain , Thunderstorm Light Rain
11:08 PM 75.2 °F - 73.4 °F 94% 30.19 in 3.0 mi NNW 13.8 mph 17.3 mph 0.16 in Rain , Thunderstorm Heavy Thunderstorms and Rain
11:11 PM 75.2 °F - 73.4 °F 94% 30.19 in 1.8 mi NNW 13.8 mph 19.6 mph 0.29 in Rain , Thunderstorm Heavy Thunderstorms and Rain
11:16 PM 73.4 °F - 73.4 °F 100% 30.19 in 1.0 mi NNW 8.1 mph 19.6 mph 0.52 in Rain , Thunderstorm Heavy Thunderstorms and Rain
11:19 PM 73.4 °F - 73.4 °F 100% 30.19 in 0.8 mi Variable 3.5 mph - 0.64 in Rain , Thunderstorm Heavy Thunderstorms and Rain
11:46 PM 73.4 °F - 73.4 °F 100% 30.20 in 1.5 mi North 4.6 mph 17.3 mph 1.53 in Rain , Thunderstorm Heavy Thunderstorms and Rain
11:56 PM 72.0 °F - 72.0 °F 100% 30.19 in 2.0 mi NW 11.5 mph - 1.62 in Rain , Thunderstorm Heavy Thunderstorms and Rain